Location: Winthrop
(48.4780°N, 120.1850°W)
Time: 03:42:33
(UTC-08:00)

Vanguard 1 Rocket - Pass Details

Date: 07 December 2023
Orbit: 654 x 4218 km, 34.3° (Epoch: 24 February)

Event Time Altitude Azimuth Distance (km) Brightness Sun altitude
Rises 05:55:32 0° 248° (WSW) 8,218 11.8 -16.2°
Reaches altitude 10° 06:02:01 10° 243° (WSW) 6,858 11.4 -15.2°
Maximum altitude 06:20:43 45° 180° (S) 3,185 10.3 -12.2°
Drops below altitude 10° 06:31:06 10° 113° (ESE) 3,943 12.3 -10.6°
Sets 06:33:43 0° 106° (ESE) 4,584 13.2 -10.2°
